Helicity
29 48 62 68 66 57 51 39 36 44 37 40 28 41 37 37 58 46 43 43 39 51 46 30 21 29 21 51 50 28 87 141 68 109 109 144 130 203 245 191 189 183 169 138 130 198 191
45 50 64 79 77 76 66 44 47 34 34 43 47 33 35 38 44 46 41 32 30 27 28 16 22 19 13 30 24 49 55 94 105 99 127 115 142 159 201 194 179 116 214 147 156 214 163
44 54 65 72 72 82 78 63 60 39 35 41 59 34 34 38 40 37 30 32 30 16 15 12 18 20 14 -13 10 46 64 9 156 66 133 107 114 139 208 171 184 107 168 169 132 144 205
53 55 75 75 71 72 71 84 79 58 41 48 48 37 16 30 33 33 24 14 39 24 17 11 18 34 20 -10 7 42 58 -4 65 116 58 75 112 133 158 182 201 177 156 168 142 97 101
77 61 78 77 76 72 72 74 76 61 51 48 50 35 20 22 35 42 14 6 37 52 23 15 19 29 24 4 13 24 54 25 33 142 25 23 83 120 130 193 240 218 156 211 157 94 119
88 72 75 79 76 73 70 71 76 60 57 54 50 32 18 19 34 42 28 39 55 61 42 30 15 29 10 10 3 23 48 35 72 164 75 123 57 175 150 180 179 226 159 210 146 123 96
117 82 74 83 78 74 74 68 60 63 54 54 55 41 12 15 39 51 75 68 67 54 77 79 44 19 4 15 -13 3 29 49 76 125 75 112 70 104 162 183 141 230 188 122 143 74 81
120 88 72 81 73 69 73 64 63 58 53 56 51 35 11 12 49 68 97 109 83 40 59 53 43 4 -9 9 13 26 29 73 89 100 50 94 87 60 110 163 137 164 174 162 137 84 54
106 90 80 86 77 69 69 62 58 58 55 51 48 31 5 13 68 87 101 75 34 10 72 78 44 24 3 -0 15 -0 -18 88 147 122 43 81 -3 28 114 180 161 171 142 150 112 94 74
91 98 87 82 79 70 69 65 54 55 48 47 34 26 11 44 78 80 92 62 29 3 87 82 74 22 12 1 22 10 18 151 134 224 161 105 16 36 97 148 126 125 100 124 110 137 100
115 99 92 80 73 69 67 66 50 46 48 43 28 23 22 48 85 78 70 57 28 18 110 79 64 9 8 48 27 9 26 198 156 210 176 90 111 10 157 125 116 114 92 115 129 135 80
117 100 100 86 73 69 64 64 47 48 45 34 17 23 74 52 52 53 72 45 35 100 75 76 28 30 12 17 16 3 53 115 201 152 126 107 105 78 122 131 115 86 201 215 180 129 32
127 105 107 96 81 56 60 63 49 45 43 26 6 36 67 49 60 64 55 44 79 87 35 60 71 -11 -0 -21 7 38 70 137 168 71 134 72 114 66 186 165 140 138 187 186 118 74 18
141 115 108 100 90 61 54 67 46 38 35 25 46 101 63 43 32 55 34 34 65 27 37 17 50 93 64 65 60 97 82 36 54 103 111 119 74 43 106 228 159 171 150 140 89 62 13
160 130 116 108 86 73 57 67 51 33 29 32 86 72 56 24 44 37 46 46 47 55 28 37 24 49 -2 13 32 91 32 19 67 55 90 90 83 182 125 108 148 157 169 150 122 97 35
164 136 124 107 88 71 65 61 49 27 22 55 73 85 49 29 44 43 46 33 22 35 24 21 20 27 -1 1 37 29 1 12 47 132 244 183 202 214 200 167 172 128 109 143 158 44 23
164 137 127 113 94 76 74 55 34 18 11 85 66 168 61 42 33 49 94 36 20 30 24 22 12 -0 7 10 11 -1 5 -1 30 -25 98 228 177 169 125 122 121 154 151 150 107 84 7
165 133 125 121 102 80 69 48 21 7 17 74 101 186 63 41 104 63 68 42 31 23 24 11 15 16 5 -6 -34 -13 9 -0 -8 20 25 76 162 161 122 113 92 102 85 142 110 72 77
170 135 122 118 107 85 76 41 11 1 24 77 150 177 56 38 193 128 40 22 23 21 19 21 7 24 11 -10 -39 -54 7 29 46 53 39 32 77 114 107 67 87 82 112 137 166 115 68
167 136 118 109 99 87 71 43 7 -2 52 77 140 143 126 96 72 95 87 42 31 21 9 9 30 33 21 33 35 -19 2 36 35 67 40 60 60 80 64 55 78 113 142 185 169 146 116
180 143 112 94 89 81 82 50 6 4 63 81 106 116 125 158 131 90 78 56 32 13 -0 3 25 53 39 24 24 17 -12 37 48 62 69 67 56 62 51 48 64 64 93 137 162 171 164
166 143 112 96 83 79 85 58 6 14 74 90 119 127 102 133 111 99 72 72 46 18 -9 -12 -9 81 53 57 40 17 25 20 28 40 40 53 39 42 47 41 48 53 44 63 70 72 66
157 141 124 99 80 84 74 58 20 20 45 73 58 62 81 91 97 114 87 70 53 -2 8 10 25 71 88 73 61 41 39 45 34 43 53 55 48 49 55 69 60 23 31 102 136 135 112
150 142 128 95 92 86 66 40 30 50 45 31 23 51 58 75 87 81 54 48 42 5 9 -2 15 85 81 88 50 53 66 57 68 80 61 53 65 62 27 54 40 24 38 23 36 44 91
154 139 116 81 93 79 54 24 27 41 38 18 9 35 50 67 43 51 37 42 8 -9 -4 -3 -5 85 100 87 91 86 82 65 68 75 70 67 69 60 44 47 26 3 36 36 47 36 30
160 134 95 89 87 63 32 16 31 42 45 26 16 13 33 76 37 38 38 43 57 31 27 6 -5 44 97 104 100 63 74 72 69 64 84 100 94 89 70 48 29 20 24 17 29 47 48
164 135 99 86 75 40 23 14 28 30 36 30 13 7 25 49 1 19 26 37 51 63 83 14 16 3 67 60 97 98 70 81 69 51 47 73 73 78 70 64 39 35 37 59 65 40 60
155 97 93 86 55 27 8 14 21 23 31 16 8 -10 20 26 -5 15 30 49 55 65 93 43 60 29 25 13 94 84 72 49 75 72 57 60 58 52 79 58 13 46 76 49 35 40 23
138 114 98 71 34 6 7 19 10 8 22 12 13 -17 -0 11 -0 4 15 44 82 84 101 101 91 40 43 29 106 85 76 64 58 67 78 67 75 61 68 45 20 25 17 29 44 24 26
Wind_Speed
53 52 52 51 54 51 52 53 52 50 50 52 54 51 44 43 50 50 49 49 45 46 43 40 33 30 33 33 42 40 40 36 46 45 52 47 52 56 61 61 57 69 56 66 55 54 55
50 51 50 49 49 51 52 48 51 50 50 51 54 52 43 39 44 44 44 41 43 43 42 40 38 33 30 32 33 37 36 32 36 48 53 48 47 51 57 56 59 60 56 66 55 53 53
48 49 51 49 48 48 50 46 50 50 51 51 53 50 44 41 40 41 38 39 36 38 38 36 36 35 31 31 35 40 34 33 40 48 54 50 47 49 50 49 48 45 58 61 69 67 60
44 47 46 46 48 46 46 49 50 48 49 52 52 48 41 39 37 36 34 30 31 31 31 31 32 32 29 35 36 33 31 32 38 46 55 48 45 51 50 43 45 47 45 64 63 62 64
40 42 43 43 46 45 44 44 47 47 49 51 51 47 41 38 35 35 31 28 26 29 28 27 27 29 29 32 33 34 30 38 34 53 56 43 42 53 51 51 56 56 65 59 55 59 56
38 40 41 42 43 43 43 42 42 46 47 50 50 47 40 36 31 34 34 36 33 32 30 28 26 28 29 26 36 33 30 31 38 50 50 56 48 55 58 52 73 63 54 50 52 57 57
33 37 39 40 42 42 43 40 41 43 45 48 49 45 38 35 29 30 34 36 38 36 36 37 34 28 26 36 36 33 31 36 39 53 58 64 56 80 66 55 49 49 46 45 40 47 58
30 34 37 38 40 41 42 40 38 42 45 47 48 44 39 29 28 31 33 34 35 34 43 36 30 22 24 31 33 25 31 40 49 69 54 64 64 58 53 51 43 44 39 43 38 36 57
27 32 35 36 39 40 42 39 38 39 44 46 46 44 41 27 29 32 34 30 32 32 40 43 35 33 30 32 30 28 27 35 49 66 61 67 50 45 55 52 48 47 49 40 37 32 50
24 30 32 33 37 37 42 39 35 38 43 45 44 42 39 31 35 32 32 31 32 33 46 48 44 37 35 30 28 29 25 36 40 54 53 57 35 33 54 54 45 53 44 33 26 27 58
21 28 29 28 35 40 43 38 34 35 42 43 42 40 36 30 35 35 32 33 35 36 68 41 45 35 35 33 31 23 24 35 41 48 46 47 49 38 42 48 41 40 35 28 25 29 40
19 29 29 31 36 42 43 39 36 38 39 41 39 36 34 36 34 33 36 37 37 49 66 46 42 46 45 38 26 24 26 31 33 34 40 40 41 33 45 37 42 25 23 20 24 32 52
19 28 31 32 37 44 46 43 38 38 39 42 36 35 35 37 38 34 34 33 45 61 40 49 46 45 47 43 39 35 29 44 45 50 47 40 41 35 44 30 33 34 28 34 41 45 46
18 27 31 33 38 42 45 44 38 37 38 41 39 42 39 38 37 35 32 39 57 47 49 42 48 49 53 54 47 44 40 47 30 33 45 43 45 35 45 44 35 32 40 38 44 47 41
17 23 30 34 38 43 45 43 40 34 36 41 37 39 40 37 37 35 40 51 45 37 40 43 44 47 53 50 49 44 35 32 35 41 43 43 39 39 39 42 38 43 45 34 28 32 41
15 20 28 33 39 45 45 41 38 27 35 36 33 38 39 34 35 38 41 45 39 34 36 36 41 40 47 50 35 34 32 28 30 36 46 38 29 35 39 36 36 43 31 44 39 41 50
13 17 24 31 38 44 40 37 28 27 34 35 33 41 35 35 35 40 47 42 35 31 32 35 40 42 43 41 44 30 38 34 41 27 26 28 40 35 34 45 42 36 42 39 35 37 40
11 14 22 29 37 39 34 33 28 27 35 37 35 43 33 35 42 38 42 36 33 32 32 32 34 38 37 38 38 35 32 37 43 32 18 28 27 35 36 38 42 48 49 47 46 46 46
8 11 19 27 36 40 39 34 31 29 31 36 39 39 34 33 45 43 36 35 32 31 29 29 30 26 27 34 35 37 29 30 29 28 31 27 23 31 39 48 47 51 50 47 48 50 54
5 10 17 27 34 39 38 37 30 31 33 36 39 42 38 36 37 39 40 37 36 31 29 27 26 27 28 26 20 36 13 24 20 31 33 29 28 31 37 33 28 43 44 41 43 55 54
3 9 17 28 32 40 44 45 37 35 34 36 41 41 37 42 40 40 37 35 35 33 29 28 18 26 24 32 30 24 30 14 31 28 32 34 36 33 35 37 37 41 43 38 40 62 57
4 6 18 24 29 36 42 47 44 38 36 41 40 40 38 41 36 38 37 36 35 30 28 26 25 31 28 24 32 35 23 22 21 22 31 34 36 35 41 42 44 51 52 55 62 71 96
7 3 12 20 28 33 38 44 49 49 36 41 39 39 39 44 41 38 37 36 32 26 29 30 22 28 26 31 31 32 32 32 27 23 21 29 30 36 41 40 46 63 64 22 49 50 56
11 2 6 14 23 29 34 39 47 51 47 42 39 41 43 48 44 40 38 34 30 25 23 23 24 27 33 40 35 30 29 28 30 29 28 26 29 35 40 38 53 44 38 41 36 66 26
16 6 2 9 17 24 30 36 42 45 46 45 41 41 42 49 45 42 38 35 27 23 22 21 22 28 41 29 30 34 36 36 38 36 33 30 29 37 42 43 55 53 43 38 39 50 42
19 10 3 7 14 20 25 31 38 41 40 43 44 42 42 45 47 43 43 39 33 26 20 19 18 26 28 29 27 30 32 32 34 37 36 32 30 31 36 45 46 37 34 33 34 49 38
22 15 6 4 11 16 22 27 34 37 38 37 40 40 41 45 42 42 46 43 36 32 24 18 16 15 20 12 27 29 30 31 36 33 33 33 36 31 35 45 53 45 42 31 44 42 48
24 17 10 2 7 13 20 25 30 33 35 35 39 39 39 44 42 39 40 43 40 35 31 23 19 15 11 9 22 33 32 30 37 37 32 21 27 33 33 40 50 29 29 34 37 44 46
27 20 11 6 5 11 18 24 29 32 32 34 38 39 40 44 43 39 35 31 31 29 28 23 23 21 18 13 21 33 37 28 31 39 34 37 31 34 20 25 39 32 33 36 36 45 44
Wind_Direction
4 9 14 19 20 23 25 25 26 26 23 22 20 20 23 23 22 23 26 29 36 38 42 47 54 17 318 308 275 288 286 267 236 237 232 232 228 225 228 232 233 234 238 232 239 242 244
6 8 13 18 21 23 23 25 25 24 22 21 20 20 24 25 24 26 31 37 39 42 49 54 59 48 7 317 320 293 284 258 246 232 230 231 231 226 229 232 232 237 239 234 238 243 244
4 7 9 15 20 22 24 25 24 23 22 20 19 20 25 24 25 26 32 36 42 46 53 62 63 56 39 334 322 290 275 257 251 234 230 230 232 227 234 232 238 239 234 241 240 240 248
5 7 13 16 17 21 22 24 22 22 20 19 18 20 25 25 26 27 32 37 45 50 59 67 64 56 60 296 303 299 278 254 256 238 229 232 234 230 231 238 230 234 238 236 242 237 245
3 7 12 16 17 19 22 23 21 20 19 19 18 20 24 25 27 29 33 39 53 56 62 70 66 61 60 253 302 294 281 248 250 230 226 225 233 228 229 224 224 233 233 238 239 237 244
359 5 10 14 17 19 21 22 22 20 18 18 19 19 23 25 29 31 35 45 61 57 59 69 75 69 65 18 282 294 284 261 237 223 218 221 228 226 224 221 222 226 235 239 242 238 241
357 2 7 13 16 19 20 21 21 19 18 18 18 20 24 24 32 39 43 48 46 50 52 47 54 71 74 266 276 291 272 244 234 217 215 211 222 218 220 225 236 229 236 241 252 246 241
355 2 6 12 15 18 20 21 20 18 17 17 18 21 23 29 40 46 51 50 50 57 44 56 62 80 66 19 316 303 268 228 219 207 211 211 223 221 222 225 236 227 234 243 257 260 243
354 359 6 12 15 18 19 21 20 18 17 17 19 21 23 37 55 54 48 55 67 67 49 48 63 68 80 43 262 254 236 223 209 206 205 211 219 227 222 222 225 234 234 244 258 262 252
351 360 8 13 16 20 19 21 20 19 18 18 20 22 27 53 53 60 55 71 70 71 45 48 57 71 91 106 210 210 228 210 215 200 203 215 228 223 218 220 231 233 240 245 253 256 251
351 358 11 18 17 17 17 21 19 18 18 18 20 24 36 64 58 54 62 73 70 72 32 52 58 83 126 156 161 232 234 215 201 197 207 216 214 222 215 219 229 238 236 242 256 264 267
351 353 6 13 14 14 16 19 20 20 19 19 20 30 56 57 60 68 68 68 68 47 38 57 69 72 91 144 199 234 222 214 209 209 215 212 208 225 223 228 237 223 228 252 268 272 263
347 350 359 11 12 10 13 18 21 21 22 21 25 47 63 63 51 80 72 67 46 40 61 58 71 81 90 108 161 202 211 197 202 204 208 207 216 235 220 220 228 230 222 247 254 256 262
343 346 354 4 9 11 15 18 22 23 25 26 44 60 62 58 64 80 72 49 40 56 63 82 82 89 88 110 140 167 185 191 218 219 209 215 223 226 224 229 234 227 236 249 252 255 267
344 345 351 359 7 10 15 20 24 27 29 34 62 59 57 59 66 67 51 41 48 67 70 78 88 92 96 124 141 155 181 207 223 227 221 221 231 229 228 230 238 237 242 257 266 278 270
344 348 350 358 4 7 16 23 27 31 34 45 65 56 53 63 65 55 50 47 59 72 76 90 81 105 106 115 172 180 206 221 229 227 220 225 226 230 231 236 248 246 248 252 263 265 264
341 349 353 360 4 7 26 31 36 36 39 57 63 46 58 67 62 51 43 53 68 82 78 83 89 97 120 128 135 214 204 208 199 235 244 240 234 238 240 245 248 255 252 261 266 273 273
335 350 355 1 3 17 37 38 40 39 47 58 55 40 62 67 45 50 48 60 71 79 78 89 103 102 129 135 144 180 241 238 207 232 265 252 254 239 248 258 257 253 255 255 263 268 274
327 355 355 358 357 14 29 39 41 42 57 56 46 47 63 62 41 46 56 62 70 75 88 75 73 265 191 147 143 140 249 266 251 249 243 246 259 250 259 260 262 258 259 262 264 270 268
311 344 351 346 1 12 30 37 44 46 62 57 46 41 52 53 52 50 52 56 63 73 82 74 4 307 281 260 272 120 154 268 270 259 254 262 273 274 269 282 285 270 268 265 267 268 271
279 328 332 327 356 2 15 25 43 50 66 62 46 44 52 42 44 49 53 57 60 68 77 76 30 342 347 287 278 330 83 328 236 269 272 275 277 282 287 288 289 286 281 269 250 265 267
222 326 317 332 358 6 13 19 37 49 65 52 45 44 50 45 49 47 48 53 59 71 79 85 84 309 319 333 290 265 318 314 318 291 268 273 281 287 287 289 287 286 282 277 271 269 260
190 308 320 337 349 10 17 18 26 36 62 49 55 54 51 43 45 47 46 51 63 77 82 78 50 313 329 309 309 298 295 296 309 314 320 302 301 298 296 303 292 268 257 208 283 282 279
219 201 333 354 1 11 24 31 29 30 46 51 55 54 46 41 46 48 51 55 65 76 89 78 62 320 306 287 294 315 324 317 309 313 310 314 310 303 299 305 283 295 306 298 294 256 280
211 193 60 17 21 23 36 41 39 43 46 46 53 50 48 42 48 48 49 51 62 79 93 85 70 328 291 317 313 304 298 298 298 303 306 312 310 300 295 294 288 290 301 303 301 292 300
202 194 157 51 27 36 46 48 43 44 52 45 48 54 51 49 44 54 50 51 53 61 83 94 67 2 320 312 317 311 305 307 305 300 303 307 311 310 308 297 296 307 314 318 316 293 309
195 187 173 64 34 34 42 47 41 48 53 57 51 54 51 48 54 58 50 50 61 61 74 91 77 73 354 347 303 301 305 309 301 305 309 307 304 307 306 300 294 302 309 320 300 301 306
194 192 180 99 22 40 40 45 40 49 54 53 49 49 49 48 56 62 61 54 54 57 58 77 88 76 68 126 311 296 301 303 299 299 309 321 316 312 311 305 299 323 328 316 318 315 314
180 184 176 138 70 53 46 39 36 43 53 53 47 44 54 47 55 68 70 71 67 67 65 72 82 77 51 59 335 304 294 313 309 303 301 302 304 313 328 331 309 319 323 324 330 317 318